This is the latest recevied weather packets stored in our database for station/object WA4IKQ. If no packets are shown the sender has not sent any weather packets the latest 10 day(s).
| Time | Temp. | Humidity | Pressure | Rain* | Wind** | Luminosity | Snow |
|---|---|---|---|---|---|---|---|
| 1777594074 | 28.33° C | 54% | 1009.9 hPa | 0 mm | 1.34 m/s, 250° | - | - |
| 1777593906 | 28.33° C | 54% | 1009.8 hPa | 0 mm | 2.24 m/s, 219° | - | - |
| 1777593774 | 28.33° C | 54% | 1009.8 hPa | 0 mm | 2.24 m/s, 219° | - | - |
| 1777593641 | 28.33° C | 54% | 1009.8 hPa | 0 mm | 3.13 m/s, 194° | - | - |
| 1777593269 | 28.89° C | 54% | 1009.7 hPa | 0 mm | 0.89 m/s, 263° | - | - |
| 1777592925 | 28.89° C | 53% | 1009.5 hPa | 0 mm | 1.79 m/s, 210° | - | - |
| 1777592875 | 28.89° C | 53% | 1009.5 hPa | 0 mm | 1.79 m/s, 210° | - | - |
| 1777592682 | 28.89° C | 53% | 1009.5 hPa | 0 mm | 0.89 m/s, 229° | - | - |
| 1777592575 | 28.89° C | 53% | 1009.5 hPa | 0 mm | 0.89 m/s, 229° | - | - |
| 1777592340 | 28.89° C | 53% | 1009.4 hPa | 0 mm | 2.24 m/s, 205° | - | - |
| 1777592273 | 28.89° C | 53% | 1009.4 hPa | 0 mm | 2.24 m/s, 205° | - | - |
| 1777592029 | 28.89° C | 52% | 1009.3 hPa | 0 mm | 0.45 m/s, 163° | - | - |
| 1777591973 | 28.89° C | 52% | 1009.3 hPa | 0 mm | 0.45 m/s, 163° | - | - |
| 1777591806 | 29.44° C | 52% | 1009.2 hPa | 0 mm | 1.79 m/s, 103° | - | - |
| 1777591677 | 29.44° C | 52% | 1009.2 hPa | 0 mm | 1.79 m/s, 103° | - | - |
| 1777591466 | 29.44° C | 51% | 1009.2 hPa | 0 mm | 4.47 m/s, 228° | - | - |
| 1777591429 | 29.44° C | 51% | 1009.2 hPa | 0 mm | 4.47 m/s, 228° | - | - |
| 1777591373 | 29.44° C | 51% | 1009.2 hPa | 0 mm | 4.47 m/s, 228° | - | - |
| 1777591210 | 29.44° C | 51% | 1009.2 hPa | 0 mm | 0.45 m/s, 205° | - | - |
| 1777591074 | 29.44° C | 51% | 1009.2 hPa | 0 mm | 0.45 m/s, 205° | - | - |
| 1777590910 | 29.44° C | 50% | 1009.1 hPa | 0 mm | 1.79 m/s, 262° | - | - |
| 1777590863 | 29.44° C | 50% | 1009.1 hPa | 0 mm | 1.79 m/s, 262° | - | - |
| 1777590775 | 29.44° C | 50% | 1009.1 hPa | 0 mm | 1.79 m/s, 262° | - | - |
| 1777590548 | 30° C | 49% | 1009.2 hPa | 0 mm | 3.13 m/s, 197° | - | - |
| 1777590475 | 30° C | 49% | 1009.2 hPa | 0 mm | 3.13 m/s, 197° | - | - |
* Rain latest hour (hover to see other rain measurements)
** Current wind speed in m/s (hover to see current wind gust speed)